QPF
0.00 0.00 0.00 0.00 0.00 0.00 0.00 0.00 0.00 0.00 0.00 0.00 0.00 0.00 0.00 0.00 0.00 0.00 0.00 0.00 0.00 0.00 0.00 0.00 0.00 0.00 0.00 0.00 0.00 0.00 0.01 0.03 0.12 0.11 0.02 0.00 0.00 0.00 0.00 0.00 0.00 0.00 0.00 0.00 0.00
0.00 0.00 0.00 0.00 0.00 0.00 0.00 0.00 0.00 0.00 0.00 0.00 0.00 0.00 0.00 0.00 0.00 0.00 0.00 0.00 0.00 0.00 0.00 0.00 0.00 0.00 0.00 0.00 0.00 0.00 0.01 0.04 0.04 0.03 0.00 0.00 0.00 0.00 0.00 0.00 0.00 0.00 0.00 0.00 0.00
0.00 0.00 0.00 0.00 0.00 0.00 0.00 0.00 0.00 0.00 0.00 0.00 0.00 0.00 0.00 0.00 0.00 0.00 0.00 0.00 0.00 0.00 0.00 0.00 0.00 0.00 0.00 0.00 0.00 0.00 0.00 0.01 0.00 0.01 0.00 0.00 0.00 0.00 0.00 0.00 0.00 0.00 0.00 0.00 0.00
0.00 0.00 0.00 0.00 0.00 0.00 0.00 0.00 0.00 0.00 0.00 0.00 0.00 0.00 0.00 0.00 0.00 0.00 0.00 0.00 0.00 0.00 0.00 0.00 0.00 0.00 0.00 0.00 0.00 0.01 0.00 0.03 0.06 0.02 0.00 0.00 0.00 0.00 0.00 0.00 0.00 0.00 0.00 0.00 0.00
0.00 0.00 0.00 0.00 0.00 0.00 0.00 0.00 0.00 0.00 0.00 0.00 0.00 0.00 0.00 0.00 0.00 0.00 0.00 0.00 0.00 0.00 0.00 0.00 0.00 0.00 0.00 0.00 0.00 0.00 0.00 0.00 0.00 0.05 0.02 0.04 0.02 0.00 0.00 0.00 0.00 0.00 0.00 0.00 0.00
0.00 0.00 0.00 0.00 0.00 0.00 0.00 0.00 0.00 0.00 0.00 0.00 0.00 0.00 0.00 0.00 0.00 0.00 0.00 0.00 0.00 0.00 0.00 0.00 0.00 0.00 0.00 0.00 0.02 0.00 0.00 0.01 0.00 0.03 0.03 0.02 0.01 0.04 0.02 0.00 0.00 0.00 0.00 0.00 0.00
0.00 0.00 0.00 0.00 0.00 0.00 0.00 0.00 0.00 0.00 0.00 0.00 0.00 0.00 0.00 0.00 0.00 0.00 0.00 0.00 0.00 0.00 0.00 0.00 0.00 0.00 0.00 0.00 0.00 0.00 0.00 0.01 0.01 0.00 0.02 0.00 0.04 0.08 0.00 0.00 0.00 0.00 0.00 0.00 0.00
0.00 0.00 0.00 0.00 0.00 0.00 0.00 0.00 0.00 0.00 0.00 0.00 0.00 0.00 0.00 0.00 0.00 0.00 0.00 0.00 0.00 0.00 0.00 0.00 0.00 0.00 0.00 0.00 0.00 0.00 0.03 0.06 0.03 0.00 0.00 0.02 0.07 0.04 0.00 0.00 0.00 0.00 0.00 0.00 0.00
0.00 0.00 0.00 0.00 0.00 0.00 0.00 0.00 0.00 0.00 0.00 0.00 0.00 0.00 0.00 0.00 0.00 0.00 0.00 0.00 0.00 0.00 0.00 0.00 0.00 0.00 0.00 0.00 0.00 0.01 0.03 0.03 0.05 0.00 0.00 0.06 0.14 0.04 0.00 0.00 0.00 0.00 0.00 0.00 0.00
0.00 0.00 0.00 0.00 0.00 0.00 0.00 0.00 0.00 0.00 0.00 0.00 0.00 0.00 0.00 0.00 0.00 0.00 0.00 0.00 0.00 0.00 0.00 0.00 0.00 0.00 0.00 0.01 0.02 0.01 0.00 0.00 0.01 0.01 0.00 0.04 0.04 0.03 0.00 0.00 0.00 0.00 0.00 0.00 0.00
0.00 0.00 0.00 0.00 0.00 0.00 0.00 0.00 0.00 0.00 0.00 0.00 0.00 0.00 0.00 0.00 0.00 0.00 0.00 0.00 0.00 0.00 0.00 0.00 0.00 0.00 0.00 0.00 0.00 0.00 0.00 0.00 0.00 0.00 0.00 0.00 0.00 0.01 0.00 0.00 0.00 0.00 0.00 0.00 0.00
0.00 0.00 0.00 0.00 0.00 0.00 0.00 0.00 0.00 0.00 0.00 0.00 0.00 0.00 0.00 0.00 0.00 0.00 0.00 0.00 0.00 0.00 0.00 0.00 0.00 0.00 0.00 0.00 0.00 0.00 0.00 0.00 0.00 0.00 0.00 0.00 0.00 0.00 0.00 0.00 0.00 0.00 0.00 0.00 0.00
0.00 0.00 0.00 0.00 0.00 0.00 0.00 0.00 0.00 0.00 0.00 0.00 0.00 0.00 0.00 0.00 0.00 0.00 0.00 0.00 0.00 0.00 0.00 0.00 0.00 0.00 0.00 0.00 0.00 0.00 0.00 0.00 0.00 0.00 0.00 0.00 0.00 0.00 0.00 0.00 0.00 0.00 0.00 0.00 0.00
0.00 0.00 0.00 0.00 0.00 0.00 0.00 0.00 0.00 0.00 0.00 0.00 0.00 0.00 0.00 0.00 0.00 0.00 0.00 0.00 0.00 0.00 0.00 0.00 0.00 0.00 0.00 0.00 0.00 0.00 0.00 0.00 0.00 0.00 0.02 0.00 0.00 0.00 0.00 0.00 0.00 0.00 0.00 0.00 0.00
0.00 0.00 0.00 0.00 0.00 0.00 0.00 0.00 0.00 0.00 0.00 0.00 0.00 0.00 0.00 0.00 0.00 0.00 0.00 0.00 0.00 0.00 0.00 0.00 0.00 0.00 0.00 0.00 0.00 0.00 0.00 0.00 0.00 0.00 0.00 0.00 0.00 0.00 0.00 0.00 0.00 0.00 0.00 0.00 0.00
0.00 0.00 0.00 0.00 0.00 0.00 0.00 0.00 0.00 0.00 0.00 0.00 0.00 0.00 0.00 0.00 0.00 0.00 0.00 0.00 0.00 0.00 0.00 0.00 0.00 0.00 0.00 0.00 0.00 0.00 0.00 0.00 0.00 0.00 0.00 0.00 0.00 0.00 0.00 0.00 0.00 0.00 0.00 0.00 0.00
0.00 0.00 0.00 0.00 0.00 0.00 0.00 0.00 0.00 0.00 0.00 0.00 0.00 0.00 0.00 0.00 0.00 0.00 0.00 0.00 0.00 0.00 0.00 0.00 0.00 0.00 0.00 0.00 0.00 0.00 0.00 0.00 0.00 0.00 0.00 0.00 0.00 0.00 0.00 0.00 0.00 0.00 0.00 0.00 0.00
0.00 0.00 0.00 0.00 0.00 0.00 0.00 0.00 0.00 0.00 0.00 0.00 0.00 0.00 0.00 0.00 0.00 0.00 0.00 0.00 0.00 0.00 0.00 0.00 0.00 0.00 0.00 0.00 0.00 0.00 0.00 0.00 0.00 0.00 0.00 0.00 0.00 0.00 0.00 0.00 0.00 0.00 0.00 0.00 0.00
0.00 0.00 0.00 0.00 0.00 0.00 0.00 0.00 0.00 0.00 0.00 0.00 0.00 0.00 0.00 0.00 0.00 0.00 0.00 0.00 0.00 0.00 0.00 0.00 0.00 0.00 0.00 0.00 0.00 0.00 0.00 0.00 0.00 0.00 0.00 0.00 0.00 0.00 0.00 0.00 0.00 0.00 0.00 0.00 0.00
0.00 0.00 0.00 0.00 0.00 0.00 0.00 0.00 0.00 0.00 0.00 0.00 0.00 0.00 0.00 0.00 0.00 0.00 0.00 0.00 0.00 0.00 0.00 0.00 0.00 0.00 0.00 0.00 0.00 0.00 0.00 0.00 0.00 0.00 0.00 0.00 0.00 0.00 0.00 0.00 0.00 0.00 0.00 0.00 0.00
0.00 0.00 0.00 0.00 0.00 0.00 0.00 0.00 0.00 0.00 0.00 0.00 0.00 0.00 0.00 0.00 0.00 0.00 0.00 0.00 0.00 0.00 0.00 0.00 0.00 0.00 0.00 0.00 0.00 0.00 0.00 0.00 0.00 0.00 0.00 0.00 0.00 0.00 0.00 0.00 0.00 0.00 0.00 0.00 0.00
0.00 0.00 0.00 0.00 0.00 0.00 0.00 0.00 0.00 0.00 0.00 0.00 0.00 0.00 0.00 0.00 0.00 0.00 0.00 0.00 0.00 0.00 0.00 0.00 0.00 0.00 0.00 0.00 0.00 0.00 0.00 0.00 0.00 0.00 0.00 0.00 0.00 0.00 0.00 0.00 0.00 0.00 0.00 0.00 0.00
0.00 0.00 0.00 0.00 0.00 0.00 0.00 0.00 0.00 0.00 0.00 0.00 0.00 0.00 0.00 0.00 0.00 0.00 0.00 0.00 0.00 0.00 0.00 0.00 0.00 0.00 0.00 0.00 0.00 0.00 0.00 0.00 0.00 0.00 0.00 0.00 0.00 0.00 0.00 0.00 0.00 0.00 0.00 0.00 0.00
0.00 0.00 0.00 0.00 0.00 0.00 0.00 0.00 0.00 0.00 0.00 0.00 0.00 0.00 0.00 0.00 0.00 0.00 0.00 0.00 0.00 0.00 0.00 0.00 0.00 0.00 0.00 0.00 0.00 0.00 0.00 0.00 0.00 0.00 0.00 0.00 0.00 0.00 0.00 0.00 0.00 0.00 0.00 0.00 0.00
0.00 0.00 0.00 0.00 0.00 0.00 0.00 0.00 0.00 0.00 0.00 0.00 0.00 0.00 0.00 0.00 0.00 0.00 0.00 0.00 0.00 0.00 0.00 0.00 0.00 0.00 0.00 0.00 0.00 0.00 0.00 0.00 0.00 0.00 0.00 0.00 0.00 0.00 0.00 0.00 0.00 0.00 0.00 0.00 0.00
0.00 0.00 0.00 0.00 0.00 0.00 0.00 0.00 0.00 0.00 0.00 0.00 0.00 0.00 0.00 0.00 0.00 0.00 0.00 0.00 0.00 0.00 0.00 0.00 0.00 0.00 0.00 0.00 0.00 0.00 0.00 0.00 0.00 0.00 0.00 0.00 0.00 0.00 0.00 0.00 0.00 0.00 0.00 0.00 0.00
0.00 0.00 0.00 0.00 0.00 0.00 0.00 0.00 0.00 0.00 0.00 0.00 0.00 0.00 0.00 0.00 0.00 0.00 0.00 0.00 0.00 0.00 0.00 0.00 0.00 0.00 0.00 0.00 0.00 0.00 0.00 0.00 0.00 0.00 0.00 0.00 0.00 0.00 0.00 0.00 0.00 0.00 0.00 0.00 0.00
MSLP
1017.44 1017.17 1016.92 1016.67 1016.42 1016.21 1015.97 1015.66 1015.30 1015.06 1014.90 1014.67 1014.49 1014.27 1014.03 1013.66 1012.78 1012.18 1010.11 1008.98 1008.88 1009.34 1009.54 1008.91 1008.64 1008.31 1008.11 1008.10 1008.47 1008.62 1007.98 1008.62 1009.59 1009.71 1009.89 1009.51 1008.99 1009.28 1009.52 1009.86 1010.24 1010.68 1010.56 1011.50 1012.80
1017.45 1017.10 1016.78 1016.56 1016.29 1016.07 1015.83 1015.58 1015.33 1015.02 1014.81 1014.60 1014.37 1014.11 1013.91 1013.56 1011.98 1010.10 1009.08 1009.19 1009.31 1009.39 1008.73 1008.20 1007.82 1007.82 1007.34 1007.89 1008.25 1007.99 1008.19 1009.78 1011.16 1011.20 1010.69 1009.95 1009.14 1009.29 1009.39 1009.52 1010.38 1011.03 1011.72 1012.43 1013.06
1017.34 1017.01 1016.72 1016.41 1016.11 1015.92 1015.75 1015.47 1015.20 1014.92 1014.68 1014.49 1014.19 1013.91 1013.69 1013.25 1010.83 1008.21 1008.94 1009.27 1009.43 1009.37 1008.50 1007.97 1007.60 1007.38 1006.87 1007.54 1008.12 1008.51 1008.94 1010.61 1011.86 1011.94 1011.07 1010.03 1009.68 1009.70 1009.18 1009.05 1009.75 1010.66 1011.64 1012.43 1012.92
1017.34 1016.92 1016.59 1016.26 1015.95 1015.71 1015.50 1015.25 1015.00 1014.80 1014.54 1014.28 1014.04 1013.75 1013.43 1012.25 1009.16 1008.54 1009.07 1009.39 1009.55 1008.92 1008.38 1007.76 1007.39 1006.77 1006.41 1007.07 1008.23 1008.55 1010.00 1010.99 1012.00 1012.25 1011.63 1010.50 1010.31 1009.57 1009.60 1009.69 1010.03 1010.80 1011.63 1012.40 1012.87
1017.31 1016.92 1016.49 1016.09 1015.73 1015.46 1015.18 1014.97 1014.79 1014.62 1014.35 1014.05 1013.81 1013.55 1012.81 1010.54 1008.39 1008.67 1009.25 1009.51 1009.18 1008.77 1007.94 1007.34 1006.81 1006.40 1006.32 1007.26 1008.03 1008.45 1009.61 1011.00 1012.16 1012.41 1012.13 1011.18 1010.71 1010.03 1010.19 1010.13 1010.50 1011.09 1011.77 1012.19 1012.56
1017.14 1016.75 1016.32 1015.91 1015.57 1015.26 1014.98 1014.72 1014.53 1014.33 1014.11 1013.81 1013.62 1013.43 1011.80 1008.75 1008.51 1008.66 1008.71 1009.05 1008.54 1008.33 1007.76 1007.41 1006.64 1006.63 1006.87 1007.55 1007.97 1008.97 1009.57 1010.78 1011.63 1012.16 1012.07 1011.52 1010.61 1010.44 1010.43 1010.43 1010.74 1011.17 1011.51 1012.01 1012.45
1017.15 1016.67 1016.15 1015.71 1015.35 1015.00 1014.69 1014.36 1014.14 1013.98 1013.82 1013.55 1013.38 1012.71 1010.35 1008.66 1008.42 1008.62 1008.69 1008.52 1008.66 1008.16 1007.50 1007.45 1007.14 1006.82 1006.97 1007.72 1008.43 1008.78 1009.33 1010.70 1011.31 1012.13 1012.18 1012.04 1010.93 1010.54 1010.35 1010.32 1010.61 1010.87 1011.32 1011.87 1012.38
1016.97 1016.52 1016.02 1015.56 1015.16 1014.77 1014.42 1014.04 1013.67 1013.44 1013.38 1013.30 1013.14 1011.91 1008.59 1008.54 1008.45 1008.64 1008.46 1008.55 1008.71 1008.49 1007.85 1007.75 1007.27 1007.00 1006.85 1007.84 1008.15 1008.20 1008.60 1009.15 1010.27 1011.41 1011.51 1011.57 1011.00 1010.70 1010.67 1010.41 1010.35 1010.67 1011.15 1011.66 1012.13
1016.86 1016.37 1015.85 1015.39 1014.98 1014.60 1014.21 1013.67 1013.02 1012.95 1013.07 1013.04 1012.33 1010.52 1007.91 1009.04 1008.22 1007.72 1007.98 1007.62 1008.03 1008.19 1008.10 1008.02 1007.18 1006.78 1007.23 1007.00 1006.76 1007.54 1007.37 1008.03 1009.33 1009.98 1010.50 1010.91 1010.32 1010.70 1011.19 1010.62 1010.32 1010.39 1010.73 1011.10 1011.63
1016.74 1016.21 1015.72 1015.23 1014.82 1014.47 1014.03 1013.62 1013.09 1012.89 1012.68 1012.11 1011.11 1009.81 1007.78 1007.13 1007.35 1007.64 1007.95 1007.65 1007.34 1007.55 1007.61 1007.29 1006.51 1005.88 1006.11 1006.79 1006.03 1006.39 1006.46 1007.33 1007.74 1008.93 1009.56 1009.67 1009.84 1010.29 1010.55 1010.49 1010.48 1010.14 1010.28 1010.63 1010.98
1016.63 1016.05 1015.55 1015.02 1014.65 1014.33 1013.59 1012.71 1012.44 1011.49 1010.45 1008.67 1008.06 1007.36 1006.83 1007.00 1007.32 1007.16 1007.44 1007.26 1006.96 1006.80 1006.18 1006.52 1005.69 1005.03 1005.15 1006.40 1005.96 1006.17 1006.27 1006.66 1007.28 1008.04 1008.44 1008.33 1008.44 1009.20 1009.72 1010.08 1010.38 1010.23 1009.88 1009.98 1010.17
1016.38 1015.76 1015.21 1014.72 1014.30 1013.88 1013.27 1010.32 1009.88 1009.77 1008.24 1007.75 1007.56 1007.16 1006.85 1006.42 1006.33 1006.71 1007.06 1006.59 1006.43 1005.90 1006.26 1006.23 1005.22 1004.80 1005.82 1006.29 1006.12 1005.89 1005.64 1005.90 1007.08 1007.67 1007.95 1007.41 1007.43 1007.73 1008.61 1009.09 1009.27 1009.50 1010.17 1010.06 1010.11
1016.14 1015.50 1014.88 1014.30 1013.87 1013.48 1011.23 1009.69 1009.48 1009.43 1007.73 1006.89 1006.46 1005.92 1006.02 1006.25 1005.50 1005.89 1006.41 1006.19 1005.91 1005.72 1005.75 1005.03 1004.85 1005.48 1005.81 1005.65 1005.60 1005.27 1005.06 1005.41 1006.16 1007.07 1007.34 1007.02 1006.04 1006.31 1007.12 1008.12 1008.63 1008.93 1009.26 1009.38 1010.41
1015.86 1015.27 1014.71 1014.14 1013.90 1011.43 1009.86 1009.60 1009.52 1009.49 1006.55 1005.92 1005.48 1005.25 1005.73 1005.41 1005.47 1005.87 1005.94 1005.83 1005.89 1005.46 1005.60 1005.34 1004.95 1005.57 1005.34 1005.19 1005.19 1004.54 1005.16 1005.43 1005.93 1006.02 1005.43 1006.37 1004.48 1005.23 1005.90 1007.01 1007.68 1008.10 1008.47 1008.65 1009.14
1015.52 1014.95 1014.49 1014.37 1012.44 1010.36 1009.70 1009.48 1009.32 1008.83 1005.19 1004.81 1004.69 1005.12 1004.99 1004.84 1005.14 1005.88 1006.07 1005.88 1005.22 1005.43 1005.88 1004.76 1004.87 1005.00 1004.89 1004.59 1004.69 1004.43 1005.14 1005.07 1005.47 1004.94 1005.20 1005.34 1004.86 1004.42 1005.31 1005.16 1005.99 1006.96 1007.60 1007.99 1008.06
1015.06 1014.55 1014.05 1013.20 1012.22 1010.04 1009.89 1009.48 1008.99 1007.04 1004.08 1004.01 1004.25 1004.42 1004.43 1004.36 1004.56 1005.42 1005.81 1005.86 1005.60 1005.32 1005.27 1004.67 1005.14 1004.79 1004.23 1004.58 1004.68 1004.95 1004.81 1004.82 1004.87 1004.38 1003.75 1003.68 1004.28 1002.99 1003.67 1004.57 1005.11 1005.82 1006.48 1007.31 1007.64
1014.63 1013.91 1013.63 1012.02 1009.98 1010.23 1009.77 1008.63 1006.84 1004.68 1004.16 1003.50 1003.29 1003.57 1003.40 1003.52 1004.08 1004.61 1004.90 1004.95 1004.40 1004.45 1004.09 1004.31 1004.32 1004.22 1004.52 1004.11 1004.57 1004.42 1003.67 1002.97 1002.92 1002.77 1002.45 1003.79 1003.94 1002.80 1003.72 1004.62 1005.12 1005.52 1006.13 1006.56 1007.13
1013.97 1013.35 1012.55 1011.45 1010.75 1010.38 1009.12 1007.40 1005.36 1003.71 1002.94 1003.18 1002.99 1003.01 1002.87 1003.00 1003.26 1003.83 1003.95 1003.68 1003.96 1003.82 1003.14 1003.06 1003.27 1003.69 1003.83 1003.71 1003.35 1003.78 1003.11 1002.41 1002.32 1002.20 1002.05 1003.47 1003.29 1002.93 1003.87 1004.71 1005.36 1005.89 1006.15 1006.67 1006.76
1013.30 1011.06 1010.64 1010.28 1010.56 1010.32 1008.27 1005.95 1004.01 1003.44 1003.05 1002.95 1002.86 1002.49 1002.29 1002.72 1002.78 1003.08 1003.19 1002.67 1002.79 1003.43 1002.75 1002.55 1002.71 1003.76 1004.13 1003.79 1003.94 1003.17 1003.60 1002.85 1002.67 1002.54 1002.93 1002.49 1002.93 1003.42 1003.98 1004.41 1005.17 1005.54 1006.16 1006.36 1006.73
1013.14 1010.77 1009.81 1010.14 1010.20 1009.23 1007.43 1005.19 1004.50 1004.46 1004.00 1003.38 1002.28 1001.90 1001.39 1001.84 1002.48 1002.41 1002.32 1002.10 1002.44 1002.79 1002.79 1002.63 1002.69 1003.38 1004.09 1004.34 1004.33 1003.92 1003.33 1002.95 1002.55 1002.38 1002.20 1002.05 1002.80 1002.66 1003.40 1004.03 1004.69 1005.21 1005.68 1006.15 1006.60
1012.66 1009.89 1010.04 1010.10 1009.83 1008.11 1006.08 1005.11 1004.83 1004.56 1004.43 1003.59 1002.56 1001.96 1001.48 1001.41 1001.73 1001.63 1001.49 1002.03 1002.23 1002.69 1002.91 1002.58 1002.75 1003.34 1003.89 1003.55 1003.05 1003.84 1003.37 1003.15 1002.65 1002.81 1002.36 1002.07 1001.84 1002.55 1003.43 1003.96 1004.84 1005.35 1005.82 1006.27 1006.59
1012.16 1009.30 1009.85 1009.72 1008.38 1006.98 1005.84 1005.79 1005.85 1004.56 1004.46 1003.97 1003.57 1002.73 1001.87 1001.53 1001.41 1001.33 1001.18 1001.22 1002.04 1002.66 1002.75 1002.98 1002.39 1002.27 1002.77 1004.09 1004.45 1003.87 1003.18 1003.09 1002.57 1002.46 1002.77 1003.14 1002.83 1003.70 1004.28 1005.07 1005.59 1005.78 1006.28 1006.56 1006.84
1012.35 1010.48 1009.68 1009.30 1007.30 1006.78 1006.46 1006.15 1005.77 1004.92 1004.43 1004.00 1003.35 1003.05 1002.58 1001.91 1001.62 1001.37 1001.15 1001.45 1002.32 1002.38 1002.39 1002.93 1002.49 1002.26 1002.73 1003.63 1004.19 1003.71 1003.78 1003.50 1003.38 1003.09 1003.02 1002.83 1002.82 1004.27 1004.55 1005.22 1005.70 1006.08 1006.31 1006.73 1007.01
1012.89 1010.05 1009.11 1008.88 1008.53 1007.44 1006.63 1005.97 1005.49 1005.60 1005.25 1004.80 1004.06 1003.53 1002.94 1002.30 1001.97 1001.34 1001.36 1002.05 1002.40 1002.27 1003.08 1002.90 1002.18 1002.47 1002.25 1002.59 1003.12 1003.29 1003.80 1003.94 1003.68 1003.13 1002.64 1002.44 1002.88 1003.27 1004.04 1005.02 1005.64 1006.27 1006.71 1006.91 1007.03
1013.04 1011.26 1011.39 1008.85 1008.66 1008.38 1007.96 1006.95 1006.04 1005.55 1005.47 1005.26 1004.44 1004.11 1003.54 1002.50 1001.86 1001.75 1001.44 1001.91 1002.49 1003.17 1003.01 1002.68 1002.50 1002.88 1002.96 1003.56 1003.76 1003.68 1003.60 1003.83 1003.96 1003.76 1003.70 1003.49 1003.39 1003.62 1004.23 1005.01 1005.77 1006.34 1007.02 1007.13 1007.20
1013.52 1012.47 1011.66 1010.49 1009.91 1009.20 1008.20 1007.26 1006.81 1006.22 1006.35 1005.13 1005.21 1004.95 1004.53 1003.57 1002.46 1001.94 1001.47 1001.30 1001.69 1002.90 1002.70 1002.78 1002.65 1003.17 1003.12 1003.79 1003.97 1003.84 1003.74 1003.73 1003.80 1003.86 1003.81 1003.94 1003.76 1003.99 1004.94 1005.71 1006.14 1006.48 1006.98 1007.23 1007.42
1014.56 1014.05 1013.03 1010.91 1009.87 1009.31 1007.98 1007.84 1007.51 1007.86 1006.79 1006.62 1006.27 1005.92 1004.99 1004.56 1004.73 1003.89 1002.52 1001.50 1001.30 1001.78 1002.18 1002.50 1002.53 1003.22 1002.89 1003.55 1003.83 1003.67 1003.21 1003.21 1003.25 1003.46 1003.52 1003.57 1003.66 1004.56 1005.11 1005.48 1005.99 1006.39 1007.06 1007.44 1007.71
Thickness
5747 5748 5749 5751 5752 5753 5755 5757 5759 5761 5762 5764 5765 5766 5768 5772 5779 5787 5793 5808 5809 5806 5804 5806 5804 5803 5804 5793 5793 5792 5773 5757 5752 5755 5755 5773 5769 5778 5780 5765 5766 5766 5768 5766 5762
5749 5750 5752 5753 5754 5755 5757 5758 5759 5761 5762 5764 5765 5767 5768 5770 5783 5792 5808 5807 5806 5805 5805 5800 5795 5799 5793 5788 5787 5782 5770 5752 5747 5750 5754 5768 5776 5772 5769 5766 5758 5758 5763 5762 5759
5751 5752 5753 5755 5756 5757 5758 5760 5761 5762 5764 5765 5766 5767 5768 5770 5783 5801 5807 5804 5803 5804 5809 5808 5806 5799 5791 5791 5783 5777 5762 5757 5745 5748 5764 5771 5771 5775 5770 5763 5766 5756 5757 5758 5756
5752 5754 5756 5757 5759 5760 5760 5762 5763 5764 5765 5766 5766 5767 5769 5777 5774 5802 5802 5801 5800 5805 5805 5801 5797 5791 5789 5780 5783 5767 5765 5757 5748 5748 5757 5766 5770 5771 5770 5766 5775 5768 5765 5760 5755
5754 5756 5758 5759 5761 5762 5763 5764 5765 5765 5765 5766 5767 5768 5774 5780 5788 5800 5797 5796 5799 5801 5799 5796 5793 5794 5784 5783 5781 5773 5770 5763 5749 5747 5753 5768 5761 5766 5762 5773 5775 5769 5764 5759 5758
5756 5758 5760 5761 5763 5764 5765 5766 5766 5766 5766 5766 5766 5766 5775 5778 5798 5797 5797 5795 5798 5797 5796 5798 5796 5800 5788 5779 5775 5774 5771 5762 5757 5746 5750 5754 5765 5765 5766 5774 5768 5767 5764 5761 5758
5755 5758 5761 5763 5765 5767 5768 5769 5769 5768 5767 5766 5765 5769 5778 5780 5797 5794 5793 5793 5795 5797 5791 5798 5802 5794 5793 5774 5782 5776 5761 5757 5756 5746 5746 5750 5751 5747 5771 5774 5766 5767 5765 5762 5759
5756 5758 5762 5764 5766 5768 5770 5771 5772 5771 5768 5765 5764 5771 5782 5795 5794 5790 5792 5787 5791 5795 5796 5799 5804 5794 5790 5787 5777 5767 5770 5750 5761 5749 5754 5752 5730 5758 5769 5770 5767 5767 5765 5761 5759
5755 5758 5761 5764 5766 5768 5770 5773 5775 5772 5767 5764 5768 5773 5777 5790 5784 5794 5793 5785 5788 5790 5792 5794 5797 5785 5783 5771 5771 5768 5754 5758 5752 5767 5760 5751 5746 5759 5758 5766 5766 5769 5767 5765 5762
5753 5757 5760 5763 5766 5767 5770 5771 5772 5771 5769 5768 5771 5766 5783 5779 5787 5788 5790 5789 5783 5782 5777 5781 5783 5779 5779 5765 5745 5756 5764 5763 5761 5765 5763 5757 5753 5759 5764 5763 5761 5769 5771 5769 5767
5750 5755 5758 5761 5764 5766 5770 5778 5778 5775 5778 5785 5785 5781 5783 5789 5790 5781 5786 5781 5783 5778 5765 5774 5767 5764 5777 5771 5779 5774 5770 5763 5770 5775 5767 5767 5767 5765 5768 5765 5760 5764 5773 5773 5774
5748 5753 5757 5760 5763 5766 5771 5788 5787 5785 5777 5789 5784 5782 5787 5791 5769 5774 5785 5767 5766 5759 5767 5761 5758 5782 5779 5774 5772 5773 5771 5770 5771 5774 5769 5773 5770 5778 5773 5770 5773 5773 5765 5769 5772
5746 5751 5756 5760 5763 5767 5783 5788 5792 5789 5777 5782 5788 5785 5782 5783 5772 5769 5777 5770 5762 5758 5759 5759 5771 5778 5770 5770 5765 5772 5773 5772 5766 5770 5774 5771 5774 5779 5784 5779 5778 5779 5779 5780 5766
5745 5749 5754 5759 5763 5780 5784 5790 5789 5785 5774 5772 5779 5785 5784 5785 5765 5783 5784 5772 5760 5754 5758 5759 5778 5765 5767 5765 5772 5764 5781 5776 5767 5766 5760 5776 5762 5779 5785 5774 5775 5778 5780 5783 5780
5744 5749 5752 5753 5769 5777 5783 5786 5787 5780 5749 5784 5782 5802 5791 5776 5775 5766 5783 5770 5756 5755 5755 5757 5762 5762 5760 5770 5780 5770 5780 5777 5772 5775 5770 5767 5763 5779 5783 5783 5785 5783 5782 5785 5790
5744 5748 5752 5758 5763 5779 5779 5782 5778 5756 5744 5773 5785 5775 5771 5778 5774 5772 5767 5775 5773 5759 5762 5765 5777 5774 5775 5777 5779 5780 5774 5774 5775 5776 5761 5777 5766 5783 5784 5784 5790 5794 5792 5787 5790
5742 5748 5751 5760 5774 5773 5776 5775 5754 5749 5782 5770 5773 5778 5776 5770 5767 5766 5757 5753 5752 5738 5744 5760 5763 5779 5779 5769 5776 5775 5774 5762 5757 5761 5762 5774 5760 5784 5790 5790 5791 5791 5792 5794 5794
5740 5746 5753 5758 5763 5767 5771 5761 5735 5770 5775 5786 5781 5779 5766 5775 5772 5767 5760 5755 5768 5764 5758 5749 5740 5769 5783 5774 5772 5769 5780 5767 5734 5750 5771 5771 5748 5775 5794 5794 5793 5790 5792 5791 5792
5735 5754 5754 5759 5757 5759 5760 5744 5758 5770 5781 5773 5775 5765 5767 5772 5773 5768 5763 5767 5775 5772 5755 5754 5755 5776 5774 5783 5779 5774 5753 5790 5765 5775 5751 5773 5773 5787 5790 5788 5786 5787 5784 5786 5789
5731 5745 5750 5751 5751 5754 5748 5742 5757 5767 5771 5773 5761 5776 5766 5770 5762 5766 5765 5783 5773 5781 5787 5772 5748 5772 5769 5775 5775 5769 5786 5759 5769 5732 5730 5762 5753 5761 5773 5777 5784 5782 5782 5784 5787
5728 5740 5742 5744 5745 5743 5736 5746 5754 5767 5766 5762 5766 5768 5775 5771 5772 5769 5773 5779 5783 5775 5782 5780 5768 5757 5767 5763 5768 5761 5762 5768 5775 5763 5743 5743 5764 5789 5779 5781 5775 5777 5779 5779 5780
5721 5730 5737 5740 5729 5740 5736 5739 5733 5755 5764 5760 5763 5766 5770 5775 5769 5769 5770 5782 5791 5782 5763 5777 5777 5759 5764 5764 5766 5769 5768 5768 5753 5752 5758 5747 5753 5781 5776 5770 5767 5770 5771 5775 5777
5708 5715 5732 5731 5720 5723 5731 5730 5736 5741 5749 5752 5755 5763 5771 5767 5757 5770 5777 5789 5785 5780 5772 5774 5765 5748 5748 5757 5760 5756 5759 5765 5765 5766 5744 5739 5757 5769 5770 5764 5765 5762 5768 5769 5769
5698 5707 5717 5719 5718 5716 5717 5721 5724 5736 5735 5743 5747 5757 5757 5758 5769 5765 5767 5773 5779 5782 5764 5773 5770 5753 5745 5749 5759 5745 5749 5753 5752 5741 5750 5758 5755 5766 5762 5755 5756 5756 5758 5762 5763
5691 5692 5687 5701 5701 5701 5702 5709 5711 5715 5729 5735 5735 5739 5742 5745 5757 5755 5769 5765 5768 5754 5767 5770 5746 5751 5755 5751 5749 5747 5746 5743 5734 5740 5725 5738 5740 5750 5753 5749 5748 5750 5747 5751 5754
5674 5675 5682 5684 5685 5685 5681 5698 5699 5708 5708 5720 5717 5724 5732 5735 5753 5751 5762 5765 5757 5757 5758 5765 5743 5745 5739 5744 5741 5732 5741 5741 5737 5737 5734 5732 5731 5752 5746 5741 5736 5739 5739 5740 5744
5659 5660 5660 5667 5677 5676 5688 5687 5689 5688 5703 5705 5708 5709 5719 5726 5733 5744 5763 5773 5774 5759 5753 5751 5748 5732 5726 5737 5732 5717 5735 5738 5739 5741 5735 5719 5736 5738 5732 5731 5730 5733 5731 5731 5735